{"data":{"norad_id":62792,"epoch":"2026-05-25T03:02:34.903968Z","epoch_age_seconds":61128,"freshness":"FRESH","line1":"1 62792U 25016H   26145.12679287  .00000118  00000+0  16480-3 0  9991","line2":"2 62792  88.9727  86.1511 0014047 226.8550 133.1428 13.51010816 69299","mean_motion":13.51010816,"eccentricity":0.0014047,"inclination_deg":88.9727,"raan_deg":86.1511,"arg_perigee_deg":226.855,"mean_anomaly_deg":133.1428,"bstar":0.0001648,"rev_number":6929,"period_min":106.5868594793,"perigee_km":1058.0814905136,"apogee_km":1079.0021900475,"semimajor_km":7446.6788402805,"source":"CELESTRAK","updated_at":"2026-05-25T13:38:03.252339Z"}}